EW8GT-13 Weather Reports


time (UTC)temp
C
wind
direction
speed
KPH
gust
KPH
rain 1hr
cm
rain 24hr
cm
rain mn
cm
humidity
%
barometer
mb
20260508111824 31 0.0 0.0 0.00 0.00 0.00 27 997.8
20260508111239 32 0.0 0.0 0.00 0.00 0.00 27 997.8
20260508110638 32 0.0 0.0 0.00 0.00 0.00 28 997.8
20260508110037 32 0.0 0.0 0.00 0.00 0.00 28 997.9
20260508105435 31 0.0 0.0 0.00 0.00 0.00 27 997.9
20260508104834 31 0.0 0.0 0.00 0.00 0.00 27 998.0
20260508104233 32 0.0 0.0 0.00 0.00 0.00 26 998.1
20260508103632 31 0.0 0.0 0.00 0.00 0.00 28 998.0
20260508103031 31 0.0 0.0 0.00 0.00 0.00 26 998.0
20260508102429 31 0.0 0.0 0.00 0.00 0.00 27 998.0
20260508101828 31 0.0 0.0 0.00 0.00 0.00 28 998.0
20260508101227 31 0.0 0.0 0.00 0.00 0.00 26 998.1
20260508100626 31 0.0 0.0 0.00 0.00 0.00 27 998.2
20260508100025 31 0.0 0.0 0.00 0.00 0.00 27 998.3
20260508095423 31 0.0 0.0 0.00 0.00 0.00 26 998.3
20260508094822 31 0.0 0.0 0.00 0.00 0.00 27 998.2
20260508094221 31 0.0 0.0 0.00 0.00 0.00 28 998.2
20260508093620 31 0.0 0.0 0.00 0.00 0.00 27 998.3
20260508093019 30 0.0 0.0 0.00 0.00 0.00 30 998.3
20260508092417 31 0.0 0.0 0.00 0.00 0.00 27 998.4
20260508091816 31 0.0 0.0 0.00 0.00 0.00 28 998.4
20260508091215 31 0.0 0.0 0.00 0.00 0.00 29 998.4
20260508090614 31 0.0 0.0 0.00 0.00 0.00 31 998.5
20260508090013 30 0.0 0.0 0.00 0.00 0.00 31 998.5
20260508085411 30 0.0 0.0 0.00 0.00 0.00 31 998.5
20260508084810 30 0.0 0.0 0.00 0.00 0.00 32 998.6
20260508084209 30 0.0 0.0 0.00 0.00 0.00 32 998.6
20260508083719 27 0.0 0.0 0.00 0.00 0.00 36 998.5
20260508083118 27 0.0 0.0 0.00 0.00 0.00 36 998.5
20260508082517 27 0.0 0.0 0.00 0.00 0.00 36 998.5
20260508081916 27 0.0 0.0 0.00 0.00 0.00 36 998.5
20260508081314 27 0.0 0.0 0.00 0.00 0.00 36 998.5
20260508080713 27 0.0 0.0 0.00 0.00 0.00 36 998.5
20260508080112 27 0.0 0.0 0.00 0.00 0.00 36 998.5
20260508075511 27 0.0 0.0 0.00 0.00 0.00 36 998.5
20260508074910 27 0.0 0.0 0.00 0.00 0.00 36 998.5
20260508074308 27 0.0 0.0 0.00 0.00 0.00 36 998.5
20260508073707 27 0.0 0.0 0.00 0.00 0.00 36 998.5
20260508073106 27 0.0 0.0 0.00 0.00 0.00 36 998.5
20260508072505 27 0.0 0.0 0.00 0.00 0.00 36 998.5
20260508071903 27 0.0 0.0 0.00 0.00 0.00 36 998.5
20260508071302 26 0.0 0.0 0.00 0.00 0.00 37 998.5
20260508070701 26 0.0 0.0 0.00 0.00 0.00 37 998.5
20260508070100 26 0.0 0.0 0.00 0.00 0.00 37 998.5
20260508065459 26 0.0 0.0 0.00 0.00 0.00 38 998.5
20260508064857 25 0.0 0.0 0.00 0.00 0.00 38 998.5
20260508064256 25 0.0 0.0 0.00 0.00 0.00 38 998.4
20260508063654 25 0.0 0.0 0.00 0.00 0.00 40 998.5
20260508063053 24 0.0 0.0 0.00 0.00 0.00 40 998.4
20260508062452 24 0.0 0.0 0.00 0.00 0.00 40 998.5
20260508061851 23 0.0 0.0 0.00 0.00 0.00 40 998.4
20260508061249 23 0.0 0.0 0.00 0.00 0.00 42 998.4
20260508060648 22 0.0 0.0 0.00 0.00 0.00 42 998.4
20260508060047 22 0.0 0.0 0.00 0.00 0.00 42 998.4
20260508055446 22 0.0 0.0 0.00 0.00 0.00 43 998.3
20260508054845 21 0.0 0.0 0.00 0.00 0.00 44 998.3
20260508054243 21 0.0 0.0 0.00 0.00 0.00 45 998.3
20260508053642 21 0.0 0.0 0.00 0.00 0.00 45 998.3
20260507164708 31 0.0 0.0 0.00 0.00 0.00 20 995.5
20260507164107 31 0.0 0.0 0.00 0.00 0.00 20 995.5
20260507163505 31 0.0 0.0 0.00 0.00 0.00 20 995.5
20260507162904 31 0.0 0.0 0.00 0.00 0.00 20 995.5
20260507162306 31 0.0 0.0 0.00 0.00 0.00 20 995.5
20260507161702 31 0.0 0.0 0.00 0.00 0.00 20 995.5
20260507161100 31 0.0 0.0 0.00 0.00 0.00 20 995.5
20260507160459 31 0.0 0.0 0.00 0.00 0.00 20 995.5
20260507155858 31 0.0 0.0 0.00 0.00 0.00 20 995.5
20260507155257 31 0.0 0.0 0.00 0.00 0.00 20 995.5
20260507154656 31 0.0 0.0 0.00 0.00 0.00 20 995.5
20260507154054 31 0.0 0.0 0.00 0.00 0.00 20 995.5
20260507153453 31 0.0 0.0 0.00 0.00 0.00 20 995.5
20260507152852 31 0.0 0.0 0.00 0.00 0.00 20 995.5
20260507152251 31 0.0 0.0 0.00 0.00 0.00 20 995.5
20260507151649 31 0.0 0.0 0.00 0.00 0.00 20 995.5
20260507151049 31 0.0 0.0 0.00 0.00 0.00 20 995.5
20260507150447 31 0.0 0.0 0.00 0.00 0.00 20 995.5
20260507145846 31 0.0 0.0 0.00 0.00 0.00 20 995.5
20260507145245 31 0.0 0.0 0.00 0.00 0.00 20 995.5
20260507144644 31 0.0 0.0 0.00 0.00 0.00 20 995.5
20260507144042 31 0.0 0.0 0.00 0.00 0.00 20 995.5
20260507143441 31 0.0 0.0 0.00 0.00 0.00 20 995.5
20260507142840 31 0.0 0.0 0.00 0.00 0.00 20 995.5
20260507142239 31 0.0 0.0 0.00 0.00 0.00 20 995.5
20260507141638 31 0.0 0.0 0.00 0.00 0.00 20 995.5
20260507141036 31 0.0 0.0 0.00 0.00 0.00 20 995.5
20260507140435 31 0.0 0.0 0.00 0.00 0.00 20 995.5
20260507135834 31 0.0 0.0 0.00 0.00 0.00 19 995.6
20260507135233 31 0.0 0.0 0.00 0.00 0.00 20 995.6
20260507134631 31 0.0 0.0 0.00 0.00 0.00 20 995.6
20260507134030 31 0.0 0.0 0.00 0.00 0.00 20 995.7
20260507133429 31 0.0 0.0 0.00 0.00 0.00 19 995.7
20260507132827 31 0.0 0.0 0.00 0.00 0.00 19 995.8
20260507132226 31 0.0 0.0 0.00 0.00 0.00 19 995.8
20260507131625 31 0.0 0.0 0.00 0.00 0.00 19 995.8
20260507131024 32 0.0 0.0 0.00 0.00 0.00 19 995.9
20260507130423 32 0.0 0.0 0.00 0.00 0.00 20 995.9
20260507125821 32 0.0 0.0 0.00 0.00 0.00 19 996.0
20260507125220 32 0.0 0.0 0.00 0.00 0.00 19 996.0
20260507124619 32 0.0 0.0 0.00 0.00 0.00 18 996.0
20260507124018 32 0.0 0.0 0.00 0.00 0.00 18 996.0
20260507123418 32 0.0 0.0 0.00 0.00 0.00 19 996.1
20260507122815 32 0.0 0.0 0.00 0.00 0.00 19 996.2